Weather in Tolbazi

Russia / Republic of Bashkortostan     54°00′48″N   55°53′20″E
temp.,
°C
wind,
m/s
gust,
m/s
humid.,
%
clouds,
%
prec.,
mm/h
press.,
hPa
HPBL,
m
7 march, sun
sun723:00−12sw2395100 0.0 101425
02:00−12w2295100 0.0 101323
05:00−14nw2395100 0.0 101125
08:00−15nnw2296100 0.0 101025
11:00−13nnw459485 0.0 1010216
14:00−11nw348844 0.0 1010370
17:00−11wnw239064 0.0 1010263
20:00−15sw229640 0.0 101220
8 march, mon
mon823:00−17sw349546 0.0 101232
02:00−17s479759 0.0 1011144
05:00−14s7139580 0.1 1009333
08:00−12s91693100 0.6 1006616
11:00−8ssw111793100 1.4 10041031
14:00−4sw111792100 0.9 10021270
17:00−3sw91493100 1.3 10031118
20:00−7wsw6148197 0.8 1005454
9 march, tue
tue923:00−7sw5138498 0.9 1007356
02:00−8ssw339799 0.1 100751
05:00−4ssw6129699 0.9 1005564
08:00−3ssw71394100 0.6 1004652
11:00−3wsw81288100 1.8 10041045
14:00−5w81177100 0.1 10061251
17:00−6wsw3685100 0.1 1008526
20:00−11w1192100 0.0 100921
10 march, wed
wed1023:00−11n229298 0.0 100821
02:00−11n3596100 0.1 1006146
05:00−11nnw5895100 0.6 1006262
08:00−14nw5996100 0.2 1007248
11:00−14nw5795100 0.3 1008292
14:00−12nw5792100 0.1 1009413
17:00−14nw5791100 0.3 1011495
20:00−18nw4895100 0.1 1013323
11 march, thu
thu1123:00−21nw4797100 0.2 1016207
02:00−24nw349798 0.1 101763
05:00−27nw239689 0.1 101921
08:00−29wnw229913 0.0 102119
11:00−24w239335 0.0 1021229
14:00−20wsw348679 0.0 1021361
17:00−18sw478840 0.0 1021423
20:00−22sw479577 0.0 1023138